Location: Edson
(53.5864°N, 116.4322°W)
Time: 05:13:34
(UTC+00:00)

Envisat - Visible Passes

Search period start: 28 November 2021 00:00
Search period end: 08 December 2021 00:00
Orbit: 764 x 766 km, 98.2° (Epoch: 27 November)

Date Brightness Start Highest point End Pass type
(mag) Time Alt. Az. Time Alt. Az. Time Alt. Az.
28 Nov 4.8 00:34:23 10° SSW 00:39:01 35° W 00:43:41 10° NNW visible
28 Nov 3.8 12:35:59 10° NNE 12:40:58 52° E 12:45:55 10° S visible
28 Nov 3.7 14:15:22 10° N 14:19:47 31° WNW 14:24:11 10° WSW visible
29 Nov 6.2 01:40:12 10° WSW 01:42:00 12° W 01:43:47 10° WNW visible
29 Nov 4.9 11:59:29 10° NNE 12:03:50 28° E 12:08:08 10° SSE visible
29 Nov 3.0 13:38:11 10° N 13:43:09 55° WNW 13:48:06 10° SW visible
30 Nov 5.6 01:00:37 10° SW 01:04:35 23° W 01:08:35 10° NW visible
30 Nov 5.8 11:23:41 10° NE 11:26:29 15° E 11:29:17 10° ESE visible
30 Nov 3.0 13:01:13 10° NNE 13:06:21 81° ESE 13:11:26 10° SSW visible
30 Nov 4.2 14:41:03 10° N 14:44:50 21° NW 14:48:35 10° WSW visible
01 Dec 4.4 00:22:34 10° SSW 00:27:23 42° W 00:32:14 10° NNW visible
01 Dec 4.1 12:24:29 10° NNE 12:29:21 43° E 12:34:10 10° S visible
01 Dec 3.5 14:03:42 10° N 14:08:20 36° WNW 14:12:56 10° SW visible
02 Dec 6.0 01:27:30 10° WSW 01:30:15 14° W 01:33:01 10° NW visible
02 Dec 5.2 11:48:08 10° NE 11:52:09 23° E 11:56:09 10° SE visible
02 Dec 2.9 13:26:35 10° N 13:31:38 66° WNW 13:36:40 10° SSW visible
03 Dec 5.3 00:48:37 10° SSW 00:52:54 27° W 00:57:14 10° NW visible
03 Dec 6.0 11:12:53 10° ENE 11:14:45 12° E 11:16:36 10° ESE visible
03 Dec 3.3 12:49:40 10° NNE 12:54:46 67° ESE 12:59:50 10° S visible
03 Dec 4.0 14:29:19 10° N 14:33:24 25° WNW 14:37:28 10° WSW visible
04 Dec 4.0 00:10:49 10° S 00:15:46 51° W 00:20:45 10° NNW visible
04 Dec 4.5 12:13:02 10° NNE 12:17:43 35° E 12:22:21 10° SSE visible
04 Dec 3.3 13:52:02 10° N 13:56:50 43° WNW 14:01:37 10° SW visible
05 Dec 5.9 01:15:08 10° SW 01:18:31 18° W 01:21:56 10° NW visible
05 Dec 5.5 11:36:52 10° NE 11:40:28 19° E 11:44:01 10° SE visible
05 Dec 2.9 13:15:00 10° NNE 13:20:06 79° WNW 13:25:11 10° SSW visible
05 Dec 4.4 14:55:07 10° NNW 14:58:24 17° NW 15:01:39 10° W visible
06 Dec 4.9 00:36:41 10° SSW 00:41:15 33° W 00:45:51 10° NNW visible
06 Dec 3.6 12:38:09 10° NNE 12:43:10 55° E 12:48:09 10° S visible
06 Dec 3.8 14:17:36 10° N 14:21:57 29° WNW 14:26:17 10° WSW visible
06 Dec 3.6 23:59:08 10° S 00:04:10 63° WSW 00:09:14 10° NNW visible
07 Dec 6.2 01:42:54 10° W 01:44:15 11° W 01:45:36 10° WNW visible
07 Dec 4.8 12:01:38 10° NNE 12:06:03 29° E 12:10:28 10° SSE visible
07 Dec 3.1 13:40:24 10° N 13:45:20 52° WNW 13:50:15 10° SW visible
